Year,Month,Day,Hour,Minute,Value (Times are PST for temperature in C)
2016,06,12,00,00,13.20
2016,06,12,00,01,13.20
2016,06,12,00,02,13.20
2016,06,12,00,03,13.20
2016,06,12,00,04,13.20
2016,06,12,00,05,13.10
2016,06,12,00,06,13.10
2016,06,12,00,07,13.10
2016,06,12,00,08,13.10
2016,06,12,00,09,13.10
2016,06,12,00,10,13.10
2016,06,12,00,11,13.10
2016,06,12,00,12,13.00
2016,06,12,00,13,13.00
2016,06,12,00,14,13.00
2016,06,12,00,15,13.00
2016,06,12,00,16,13.00
2016,06,12,00,17,13.00
2016,06,12,00,18,13.00
2016,06,12,00,19,13.00
2016,06,12,00,20,13.00
2016,06,12,00,21,13.00
2016,06,12,00,22,13.00
2016,06,12,00,23,13.00
2016,06,12,00,24,13.00
2016,06,12,00,25,13.00
2016,06,12,00,26,12.90
2016,06,12,00,27,12.90
2016,06,12,00,28,12.90
2016,06,12,00,29,12.90
2016,06,12,00,30,12.90
2016,06,12,00,31,12.90
2016,06,12,00,32,12.90
2016,06,12,00,33,12.80
2016,06,12,00,34,12.80
2016,06,12,00,35,12.80
2016,06,12,00,36,12.80
2016,06,12,00,37,12.80
2016,06,12,00,38,12.80
2016,06,12,00,39,12.80
2016,06,12,00,40,12.90
2016,06,12,00,41,12.90
2016,06,12,00,42,12.90
2016,06,12,00,43,12.80
2016,06,12,00,44,12.80
2016,06,12,00,45,12.80
2016,06,12,00,46,12.80
2016,06,12,00,47,12.80
2016,06,12,00,48,12.80
2016,06,12,00,49,12.80
2016,06,12,00,50,12.80
2016,06,12,00,51,12.80
2016,06,12,00,52,12.80
2016,06,12,00,53,12.80
2016,06,12,00,54,12.70
2016,06,12,00,55,12.70
2016,06,12,00,56,12.70
2016,06,12,00,57,12.70
2016,06,12,00,58,12.70
2016,06,12,00,59,12.70
2016,06,12,01,00,12.70
2016,06,12,01,01,12.60
2016,06,12,01,02,12.60
2016,06,12,01,03,12.60
2016,06,12,01,04,12.60
2016,06,12,01,05,12.60
2016,06,12,01,06,12.60
2016,06,12,01,07,12.60
2016,06,12,01,08,12.60
2016,06,12,01,09,12.60
2016,06,12,01,10,12.60
2016,06,12,01,11,12.60
2016,06,12,01,12,12.60
2016,06,12,01,13,12.60
2016,06,12,01,14,12.60
2016,06,12,01,15,12.60
2016,06,12,01,16,12.60
2016,06,12,01,17,12.60
2016,06,12,01,18,12.60
2016,06,12,01,19,12.60
2016,06,12,01,20,12.60
2016,06,12,01,21,12.60
2016,06,12,01,22,12.60
2016,06,12,01,23,12.60
2016,06,12,01,24,12.60
2016,06,12,01,25,12.60
2016,06,12,01,26,12.50
2016,06,12,01,27,12.50
2016,06,12,01,28,12.50
2016,06,12,01,29,12.50
2016,06,12,01,30,12.50
2016,06,12,01,31,12.40
2016,06,12,01,32,12.40
2016,06,12,01,33,12.40
2016,06,12,01,34,12.40
2016,06,12,01,35,12.40
2016,06,12,01,36,12.30
2016,06,12,01,37,12.30
2016,06,12,01,38,12.30
2016,06,12,01,39,12.30
2016,06,12,01,40,12.20
2016,06,12,01,41,12.20
2016,06,12,01,42,12.20
2016,06,12,01,43,12.20
2016,06,12,01,44,12.10
2016,06,12,01,45,12.10
2016,06,12,01,46,12.10
2016,06,12,01,47,12.00
2016,06,12,01,48,12.00
2016,06,12,01,49,12.00
2016,06,12,01,50,11.90
2016,06,12,01,51,11.90
2016,06,12,01,52,11.90
2016,06,12,01,53,11.90
2016,06,12,01,54,11.90
2016,06,12,01,55,12.00
2016,06,12,01,56,12.00
2016,06,12,01,57,12.00
2016,06,12,01,58,12.10
2016,06,12,01,59,12.10
2016,06,12,02,00,12.10
2016,06,12,02,01,12.20
2016,06,12,02,02,12.20
2016,06,12,02,03,12.20
2016,06,12,02,04,12.30
2016,06,12,02,05,12.30
2016,06,12,02,06,12.30
2016,06,12,02,07,12.40
2016,06,12,02,08,12.30
2016,06,12,02,09,12.40
2016,06,12,02,10,12.30
2016,06,12,02,11,12.30
2016,06,12,02,12,12.30
2016,06,12,02,13,12.30
2016,06,12,02,14,12.30
2016,06,12,02,15,12.30
2016,06,12,02,16,12.30
2016,06,12,02,17,12.30
2016,06,12,02,18,12.30
2016,06,12,02,19,12.20
2016,06,12,02,20,12.20
2016,06,12,02,21,12.20
2016,06,12,02,22,12.20
2016,06,12,02,23,12.20
2016,06,12,02,24,12.20
2016,06,12,02,25,12.20
2016,06,12,02,26,12.20
2016,06,12,02,27,12.10
2016,06,12,02,28,12.10
2016,06,12,02,29,12.00
2016,06,12,02,30,12.00
2016,06,12,02,31,11.90
2016,06,12,02,32,11.90
2016,06,12,02,33,11.80
2016,06,12,02,34,11.80
2016,06,12,02,35,11.80
2016,06,12,02,36,11.70
2016,06,12,02,37,11.70
2016,06,12,02,38,11.70
2016,06,12,02,39,11.70
2016,06,12,02,40,11.70
2016,06,12,02,41,11.70
2016,06,12,02,42,11.80
2016,06,12,02,43,11.80
2016,06,12,02,44,11.80
2016,06,12,02,45,11.80
2016,06,12,02,46,11.70
2016,06,12,02,47,11.70
2016,06,12,02,48,11.70
2016,06,12,02,49,11.70
2016,06,12,02,50,11.70
2016,06,12,02,51,11.70
2016,06,12,02,52,11.70
2016,06,12,02,53,11.70
2016,06,12,02,54,11.60
2016,06,12,02,55,11.60
2016,06,12,02,56,11.60
2016,06,12,02,57,11.60
2016,06,12,02,58,11.60
2016,06,12,02,59,11.60
2016,06,12,03,00,11.60
2016,06,12,03,01,11.60
2016,06,12,03,02,11.60
2016,06,12,03,03,11.60
2016,06,12,03,04,11.60
2016,06,12,03,05,11.60
2016,06,12,03,06,11.60
2016,06,12,03,07,11.60
2016,06,12,03,08,11.60
2016,06,12,03,09,11.50
2016,06,12,03,10,11.50
2016,06,12,03,11,11.50
2016,06,12,03,12,11.40
2016,06,12,03,13,11.40
2016,06,12,03,14,11.40
2016,06,12,03,15,11.40
2016,06,12,03,16,11.40
2016,06,12,03,17,11.40
2016,06,12,03,18,11.40
2016,06,12,03,19,11.30
2016,06,12,03,20,11.30
2016,06,12,03,21,11.20
2016,06,12,03,22,11.20
2016,06,12,03,23,11.20
2016,06,12,03,24,11.10
2016,06,12,03,25,11.10
2016,06,12,03,26,11.10
2016,06,12,03,27,11.10
2016,06,12,03,28,11.10
2016,06,12,03,29,11.20
2016,06,12,03,30,11.20
2016,06,12,03,31,11.20
2016,06,12,03,32,11.20
2016,06,12,03,33,11.20
2016,06,12,03,34,11.20
2016,06,12,03,35,11.20
2016,06,12,03,36,11.20
2016,06,12,03,37,11.20
2016,06,12,03,38,11.20
2016,06,12,03,39,11.20
2016,06,12,03,40,11.20
2016,06,12,03,41,11.20
2016,06,12,03,42,11.20
2016,06,12,03,43,11.20
2016,06,12,03,44,11.10
2016,06,12,03,45,11.10
2016,06,12,03,46,11.10
2016,06,12,03,47,11.10
2016,06,12,03,48,11.10
2016,06,12,03,49,11.10
2016,06,12,03,50,11.10
2016,06,12,03,51,11.10
2016,06,12,03,52,11.10
2016,06,12,03,53,11.10
2016,06,12,03,54,11.10
2016,06,12,03,55,11.10
2016,06,12,03,56,11.10
2016,06,12,03,57,11.10
2016,06,12,03,58,11.10
2016,06,12,03,59,11.10
2016,06,12,04,00,11.00
2016,06,12,04,01,11.00
2016,06,12,04,02,11.00
2016,06,12,04,03,11.00
2016,06,12,04,04,10.90
2016,06,12,04,05,10.90
2016,06,12,04,06,10.90
2016,06,12,04,07,10.90
2016,06,12,04,08,10.90
2016,06,12,04,09,10.90
2016,06,12,04,10,10.80
2016,06,12,04,11,10.80
2016,06,12,04,12,10.80
2016,06,12,04,13,10.80
2016,06,12,04,14,10.80
2016,06,12,04,15,10.90
2016,06,12,04,16,10.90
2016,06,12,04,17,10.90
2016,06,12,04,18,10.90
2016,06,12,04,19,10.90
2016,06,12,04,20,10.90
2016,06,12,04,21,10.90
2016,06,12,04,22,10.90
2016,06,12,04,23,10.90
2016,06,12,04,24,10.90
2016,06,12,04,25,10.90
2016,06,12,04,26,10.90
2016,06,12,04,27,10.90
2016,06,12,04,28,10.90
2016,06,12,04,29,10.90
2016,06,12,04,30,11.00
2016,06,12,04,31,11.00
2016,06,12,04,32,11.00
2016,06,12,04,33,10.90
2016,06,12,04,34,10.90
2016,06,12,04,35,10.90
2016,06,12,04,36,10.90
2016,06,12,04,37,10.90
2016,06,12,04,38,10.90
2016,06,12,04,39,10.90
2016,06,12,04,40,10.90
2016,06,12,04,41,10.90
2016,06,12,04,42,10.90
2016,06,12,04,43,10.80
2016,06,12,04,44,10.80
2016,06,12,04,45,10.80
2016,06,12,04,46,10.80
2016,06,12,04,47,10.80
2016,06,12,04,48,10.80
2016,06,12,04,49,10.80
2016,06,12,04,50,10.80
2016,06,12,04,51,10.80
2016,06,12,04,52,10.90
2016,06,12,04,53,10.80
2016,06,12,04,54,10.90
2016,06,12,04,55,10.80
2016,06,12,04,56,10.90
2016,06,12,04,57,10.90
2016,06,12,04,58,10.90
2016,06,12,04,59,10.90
2016,06,12,05,00,10.90
2016,06,12,05,01,10.90
2016,06,12,05,02,10.90
2016,06,12,05,03,10.90
2016,06,12,05,04,10.90
2016,06,12,05,05,10.90
2016,06,12,05,06,10.90
2016,06,12,05,07,10.90
2016,06,12,05,08,10.90
2016,06,12,05,09,10.90
2016,06,12,05,10,10.90
2016,06,12,05,11,10.90
2016,06,12,05,12,10.90
2016,06,12,05,13,10.90
2016,06,12,05,14,11.00
2016,06,12,05,15,11.00
2016,06,12,05,16,11.00
2016,06,12,05,17,11.10
2016,06,12,05,18,11.10
2016,06,12,05,19,11.10
2016,06,12,05,20,11.20
2016,06,12,05,21,11.20
2016,06,12,05,22,11.20
2016,06,12,05,23,11.20
2016,06,12,05,24,11.30
2016,06,12,05,25,11.30
2016,06,12,05,26,11.30
2016,06,12,05,27,11.30
2016,06,12,05,28,11.30
2016,06,12,05,29,11.30
2016,06,12,05,30,11.30
2016,06,12,05,31,11.30
2016,06,12,05,32,11.30
2016,06,12,05,33,11.30
2016,06,12,05,34,11.30
2016,06,12,05,35,11.30
2016,06,12,05,36,11.30
2016,06,12,05,37,11.30
2016,06,12,05,38,11.30
2016,06,12,05,39,11.30
2016,06,12,05,40,11.20
2016,06,12,05,41,11.20
2016,06,12,05,42,11.20
2016,06,12,05,43,11.20
2016,06,12,05,44,11.20
2016,06,12,05,45,11.20
2016,06,12,05,46,11.30
2016,06,12,05,47,11.30
2016,06,12,05,48,11.30
2016,06,12,05,49,11.30
2016,06,12,05,50,11.30
2016,06,12,05,51,11.30
2016,06,12,05,52,11.30
2016,06,12,05,53,11.30
2016,06,12,05,54,11.30
2016,06,12,05,55,11.30
2016,06,12,05,56,11.30
2016,06,12,05,57,11.30
2016,06,12,05,58,11.30
2016,06,12,05,59,11.30
2016,06,12,06,00,11.30
2016,06,12,06,01,11.30
2016,06,12,06,02,11.30
2016,06,12,06,03,11.40
2016,06,12,06,04,11.40
2016,06,12,06,05,11.40
2016,06,12,06,06,11.40
2016,06,12,06,07,11.40
2016,06,12,06,08,11.40
2016,06,12,06,09,11.40
2016,06,12,06,10,11.40
2016,06,12,06,11,11.40
2016,06,12,06,12,11.50
2016,06,12,06,13,11.50
2016,06,12,06,14,11.50
2016,06,12,06,15,11.50
2016,06,12,06,16,11.60
2016,06,12,06,17,11.60
2016,06,12,06,18,11.60
2016,06,12,06,19,11.60
2016,06,12,06,20,11.60
2016,06,12,06,21,11.60
2016,06,12,06,22,11.60
2016,06,12,06,23,11.70
2016,06,12,06,24,11.70
2016,06,12,06,25,11.70
2016,06,12,06,26,11.70
2016,06,12,06,27,11.80
2016,06,12,06,28,11.80
2016,06,12,06,29,11.80
2016,06,12,06,30,11.90
2016,06,12,06,31,11.90
2016,06,12,06,32,12.00
2016,06,12,06,33,12.00
2016,06,12,06,34,12.10
2016,06,12,06,35,12.10
2016,06,12,06,36,12.10
2016,06,12,06,37,12.20
2016,06,12,06,38,12.20
2016,06,12,06,39,12.20
2016,06,12,06,40,12.20
2016,06,12,06,41,12.30
2016,06,12,06,42,12.30
2016,06,12,06,43,12.30
2016,06,12,06,44,12.30
2016,06,12,06,45,12.30
2016,06,12,06,46,12.40
2016,06,12,06,47,12.40
2016,06,12,06,48,12.40
2016,06,12,06,49,12.50
2016,06,12,06,50,12.50
2016,06,12,06,51,12.50
2016,06,12,06,52,12.60
2016,06,12,06,53,12.60
2016,06,12,06,54,12.60
2016,06,12,06,55,12.70
2016,06,12,06,56,12.70
2016,06,12,06,57,12.80
2016,06,12,06,58,12.80
2016,06,12,06,59,12.80
2016,06,12,07,00,12.80
2016,06,12,07,01,12.90
2016,06,12,07,02,12.90
2016,06,12,07,03,12.90
2016,06,12,07,04,12.90
2016,06,12,07,05,13.00
2016,06,12,07,06,13.00
2016,06,12,07,07,13.00
2016,06,12,07,08,13.10
2016,06,12,07,09,13.10
2016,06,12,07,10,13.10
2016,06,12,07,11,13.10
2016,06,12,07,12,13.10
2016,06,12,07,13,13.10
2016,06,12,07,14,13.10
2016,06,12,07,15,13.00
2016,06,12,07,16,13.00
2016,06,12,07,17,13.00
2016,06,12,07,18,13.00
2016,06,12,07,19,13.00
2016,06,12,07,20,13.00
2016,06,12,07,21,12.90
2016,06,12,07,22,12.90
2016,06,12,07,23,12.90
2016,06,12,07,24,13.00
2016,06,12,07,25,13.00
2016,06,12,07,26,13.00
2016,06,12,07,27,13.00
2016,06,12,07,28,13.10
2016,06,12,07,29,13.10
2016,06,12,07,30,13.10
2016,06,12,07,31,13.20
2016,06,12,07,32,13.20
2016,06,12,07,33,13.20
2016,06,12,07,34,13.20
2016,06,12,07,35,13.20
2016,06,12,07,36,13.30
2016,06,12,07,37,13.30
2016,06,12,07,38,13.30
2016,06,12,07,39,13.30
2016,06,12,07,40,13.30
2016,06,12,07,41,13.30
2016,06,12,07,42,13.30
2016,06,12,07,43,13.30
2016,06,12,07,44,13.40
2016,06,12,07,45,13.40
2016,06,12,07,46,13.40
2016,06,12,07,47,13.40
2016,06,12,07,48,13.50
2016,06,12,07,49,13.50
2016,06,12,07,50,13.50
2016,06,12,07,51,13.60
2016,06,12,07,52,13.60
2016,06,12,07,53,13.70
2016,06,12,07,54,13.70
2016,06,12,07,55,13.70
2016,06,12,07,56,13.70
2016,06,12,07,57,13.70
2016,06,12,07,58,13.70
2016,06,12,07,59,13.60
2016,06,12,08,00,13.60
2016,06,12,08,01,13.60
2016,06,12,08,02,13.50
2016,06,12,08,03,13.50
2016,06,12,08,04,13.50
2016,06,12,08,05,13.40
2016,06,12,08,06,13.40
2016,06,12,08,07,13.40
2016,06,12,08,08,13.40
2016,06,12,08,09,13.40
2016,06,12,08,10,13.40
2016,06,12,08,11,13.40
2016,06,12,08,12,13.50
2016,06,12,08,13,13.50
2016,06,12,08,14,13.50
2016,06,12,08,15,13.50
2016,06,12,08,16,13.60
2016,06,12,08,17,13.60
2016,06,12,08,18,13.60
2016,06,12,08,19,13.60
2016,06,12,08,20,13.60
2016,06,12,08,21,13.70
2016,06,12,08,22,13.70
2016,06,12,08,23,13.70
2016,06,12,08,24,13.70
2016,06,12,08,25,13.70
2016,06,12,08,26,13.80
2016,06,12,08,27,13.80
2016,06,12,08,28,13.80
2016,06,12,08,29,13.80
2016,06,12,08,30,13.80
2016,06,12,08,31,13.80
2016,06,12,08,32,13.90
2016,06,12,08,33,13.90
2016,06,12,08,34,14.00
2016,06,12,08,35,14.00
2016,06,12,08,36,14.10
2016,06,12,08,37,14.10
2016,06,12,08,38,14.10
2016,06,12,08,39,14.10
2016,06,12,08,40,14.20
2016,06,12,08,41,14.20
2016,06,12,08,42,14.20
2016,06,12,08,43,14.20
2016,06,12,08,44,14.30
2016,06,12,08,45,14.30
2016,06,12,08,46,14.30
2016,06,12,08,47,14.30
2016,06,12,08,48,14.20
2016,06,12,08,49,14.20
2016,06,12,08,50,14.10
2016,06,12,08,51,14.10
2016,06,12,08,52,14.10
2016,06,12,08,53,14.10
2016,06,12,08,54,14.10
2016,06,12,08,55,14.10
2016,06,12,08,56,14.10
2016,06,12,08,57,14.10
2016,06,12,08,58,14.10
2016,06,12,08,59,14.20
2016,06,12,09,00,14.20
2016,06,12,09,01,14.30
2016,06,12,09,02,14.30
2016,06,12,09,03,14.30
2016,06,12,09,04,14.30
2016,06,12,09,05,14.30
2016,06,12,09,06,14.30
2016,06,12,09,07,14.30
2016,06,12,09,08,14.30
2016,06,12,09,09,14.30
2016,06,12,09,10,14.30
2016,06,12,09,11,14.40
2016,06,12,09,12,14.40
2016,06,12,09,13,14.40
2016,06,12,09,14,14.50
2016,06,12,09,15,14.60
2016,06,12,09,16,14.60
2016,06,12,09,17,14.60
2016,06,12,09,18,14.70
2016,06,12,09,19,14.70
2016,06,12,09,20,14.70
2016,06,12,09,21,14.80
2016,06,12,09,22,14.80
2016,06,12,09,23,14.90
2016,06,12,09,24,14.90
2016,06,12,09,25,15.00
2016,06,12,09,26,15.00
2016,06,12,09,27,15.00
2016,06,12,09,28,15.00
2016,06,12,09,29,15.00
2016,06,12,09,30,15.00
2016,06,12,09,31,15.00
2016,06,12,09,32,14.90
2016,06,12,09,33,14.90
2016,06,12,09,34,14.80
2016,06,12,09,35,14.80
2016,06,12,09,36,14.80
2016,06,12,09,37,14.80
2016,06,12,09,38,14.80
2016,06,12,09,39,14.80
2016,06,12,09,40,14.80
2016,06,12,09,41,14.80
2016,06,12,09,42,14.80
2016,06,12,09,43,14.90
2016,06,12,09,44,14.90
2016,06,12,09,45,14.90
2016,06,12,09,46,14.90
2016,06,12,09,47,15.00
2016,06,12,09,48,15.00
2016,06,12,09,49,15.00
2016,06,12,09,50,15.00
2016,06,12,09,51,15.00
2016,06,12,09,52,15.00
2016,06,12,09,53,15.10
2016,06,12,09,54,15.20
2016,06,12,09,55,15.20
2016,06,12,09,56,15.20
2016,06,12,09,57,15.20
2016,06,12,09,58,15.20
2016,06,12,09,59,15.30
2016,06,12,10,00,15.30
2016,06,12,10,01,15.30
2016,06,12,10,02,15.30
2016,06,12,10,03,15.30
2016,06,12,10,04,15.30
2016,06,12,10,05,15.40
2016,06,12,10,06,15.40
2016,06,12,10,07,15.50
2016,06,12,10,08,15.50
2016,06,12,10,09,15.50
2016,06,12,10,10,15.50
2016,06,12,10,11,15.50
2016,06,12,10,12,15.50
2016,06,12,10,13,15.40
2016,06,12,10,14,15.40
2016,06,12,10,15,15.40
2016,06,12,10,16,15.50
2016,06,12,10,17,15.50
2016,06,12,10,18,15.40
2016,06,12,10,19,15.40
2016,06,12,10,20,15.30
2016,06,12,10,21,15.20
2016,06,12,10,22,15.10
2016,06,12,10,23,15.00
2016,06,12,10,24,15.00
2016,06,12,10,25,15.00
2016,06,12,10,26,15.10
2016,06,12,10,27,15.20
2016,06,12,10,28,15.30
2016,06,12,10,29,15.40
2016,06,12,10,30,15.50
2016,06,12,10,31,15.60
2016,06,12,10,32,15.60
2016,06,12,10,33,15.70
2016,06,12,10,34,15.70
2016,06,12,10,35,15.70
2016,06,12,10,36,15.60
2016,06,12,10,37,15.50
2016,06,12,10,38,15.50
2016,06,12,10,39,15.40
2016,06,12,10,40,15.40
2016,06,12,10,41,15.40
2016,06,12,10,42,15.40
2016,06,12,10,43,15.50
2016,06,12,10,44,15.60
2016,06,12,10,45,15.60
2016,06,12,10,46,15.70
2016,06,12,10,47,15.70
2016,06,12,10,48,15.80
2016,06,12,10,49,15.80
2016,06,12,10,50,15.90
2016,06,12,10,51,16.00
2016,06,12,10,52,16.10
2016,06,12,10,53,16.10
2016,06,12,10,54,16.00
2016,06,12,10,55,15.90
2016,06,12,10,56,15.90
2016,06,12,10,57,15.90
2016,06,12,10,58,15.90
2016,06,12,10,59,16.00
2016,06,12,11,00,16.20
2016,06,12,11,01,16.30
2016,06,12,11,02,16.40
2016,06,12,11,03,16.40
2016,06,12,11,04,16.40
2016,06,12,11,05,16.40
2016,06,12,11,06,16.40
2016,06,12,11,07,16.40
2016,06,12,11,08,16.40
2016,06,12,11,09,16.40
2016,06,12,11,10,16.40
2016,06,12,11,11,16.30
2016,06,12,11,12,16.30
2016,06,12,11,13,16.30
2016,06,12,11,14,16.30
2016,06,12,11,15,16.20
2016,06,12,11,16,16.20
2016,06,12,11,17,16.20
2016,06,12,11,18,16.20
2016,06,12,11,19,16.20
2016,06,12,11,20,16.10
2016,06,12,11,21,16.10
2016,06,12,11,22,16.10
2016,06,12,11,23,16.10
2016,06,12,11,24,16.20
2016,06,12,11,25,16.30
2016,06,12,11,26,16.30
2016,06,12,11,27,16.40
2016,06,12,11,28,16.50
2016,06,12,11,29,16.50
2016,06,12,11,30,16.60
2016,06,12,11,31,16.60
2016,06,12,11,32,16.60
2016,06,12,11,33,16.60
2016,06,12,11,34,16.60
2016,06,12,11,35,16.70
2016,06,12,11,36,16.70
2016,06,12,11,37,16.60
2016,06,12,11,38,16.60
2016,06,12,11,39,16.50
2016,06,12,11,40,16.40
2016,06,12,11,41,16.40
2016,06,12,11,42,16.40
2016,06,12,11,43,16.40
2016,06,12,11,44,16.40
2016,06,12,11,45,16.40
2016,06,12,11,46,16.40
2016,06,12,11,47,16.50
2016,06,12,11,48,16.50
2016,06,12,11,49,16.60
2016,06,12,11,50,16.60
2016,06,12,11,51,16.60
2016,06,12,11,52,16.60
2016,06,12,11,53,16.70
2016,06,12,11,54,16.70
2016,06,12,11,55,16.70
2016,06,12,11,56,16.70
2016,06,12,11,57,16.70
2016,06,12,11,58,16.60
2016,06,12,11,59,16.60
2016,06,12,12,00,16.60
2016,06,12,12,01,16.60
2016,06,12,12,02,16.60
2016,06,12,12,03,16.60
2016,06,12,12,04,16.60
2016,06,12,12,05,16.60
2016,06,12,12,06,16.70
2016,06,12,12,07,16.70
2016,06,12,12,08,16.70
2016,06,12,12,09,16.70
2016,06,12,12,10,16.80
2016,06,12,12,11,16.80
2016,06,12,12,12,16.80
2016,06,12,12,13,16.70
2016,06,12,12,14,16.70
2016,06,12,12,15,16.70
2016,06,12,12,16,16.70
2016,06,12,12,17,16.70
2016,06,12,12,18,16.60
2016,06,12,12,19,16.60
2016,06,12,12,20,16.50
2016,06,12,12,21,16.50
2016,06,12,12,22,16.40
2016,06,12,12,23,16.50
2016,06,12,12,24,16.60
2016,06,12,12,25,16.70
2016,06,12,12,26,16.80
2016,06,12,12,27,16.80
2016,06,12,12,28,16.90
2016,06,12,12,29,16.90
2016,06,12,12,30,16.90
2016,06,12,12,31,16.90
2016,06,12,12,32,16.90
2016,06,12,12,33,17.00
2016,06,12,12,34,17.00
2016,06,12,12,35,17.00
2016,06,12,12,36,17.00
2016,06,12,12,37,17.10
2016,06,12,12,38,17.10
2016,06,12,12,39,17.30
2016,06,12,12,40,17.40
2016,06,12,12,41,17.40
2016,06,12,12,42,17.40
2016,06,12,12,43,17.40
2016,06,12,12,44,17.40
2016,06,12,12,45,17.40
2016,06,12,12,46,17.40
2016,06,12,12,47,17.30
2016,06,12,12,48,17.20
2016,06,12,12,49,17.20
2016,06,12,12,50,17.20
2016,06,12,12,51,17.20
2016,06,12,12,52,17.20
2016,06,12,12,53,17.20
2016,06,12,12,54,17.20
2016,06,12,12,55,17.20
2016,06,12,12,56,17.20
2016,06,12,12,57,17.10
2016,06,12,12,58,17.10
2016,06,12,12,59,17.10
2016,06,12,13,00,17.10
2016,06,12,13,01,17.20
2016,06,12,13,02,17.20
2016,06,12,13,03,17.30
2016,06,12,13,04,17.30
2016,06,12,13,05,17.20
2016,06,12,13,06,17.20
2016,06,12,13,07,17.10
2016,06,12,13,08,17.10
2016,06,12,13,09,17.10
2016,06,12,13,10,17.10
2016,06,12,13,11,17.10
2016,06,12,13,12,17.10
2016,06,12,13,13,17.10
2016,06,12,13,14,17.20
2016,06,12,13,15,17.20
2016,06,12,13,16,17.20
2016,06,12,13,17,17.20
2016,06,12,13,18,17.20
2016,06,12,13,19,17.30
2016,06,12,13,20,17.30
2016,06,12,13,21,17.30
2016,06,12,13,22,17.40
2016,06,12,13,23,17.40
2016,06,12,13,24,17.50
2016,06,12,13,25,17.50
2016,06,12,13,26,17.60
2016,06,12,13,27,17.60
2016,06,12,13,28,17.60
2016,06,12,13,29,17.70
2016,06,12,13,30,17.70
2016,06,12,13,31,17.70
2016,06,12,13,32,17.70
2016,06,12,13,33,17.70
2016,06,12,13,34,17.60
2016,06,12,13,35,17.70
2016,06,12,13,36,17.70
2016,06,12,13,37,17.80
2016,06,12,13,38,17.90
2016,06,12,13,39,17.80
2016,06,12,13,40,17.80
2016,06,12,13,41,17.80
2016,06,12,13,42,17.80
2016,06,12,13,43,17.80
2016,06,12,13,44,17.80
2016,06,12,13,45,17.80
2016,06,12,13,46,17.80
2016,06,12,13,47,17.90
2016,06,12,13,48,17.90
2016,06,12,13,49,18.00
2016,06,12,13,50,18.10
2016,06,12,13,51,18.20
2016,06,12,13,52,18.20
2016,06,12,13,53,18.30
2016,06,12,13,54,18.30
2016,06,12,13,55,18.30
2016,06,12,13,56,18.30
2016,06,12,13,57,18.20
2016,06,12,13,58,18.20
2016,06,12,13,59,18.30
2016,06,12,14,00,18.30
2016,06,12,14,01,18.40
2016,06,12,14,02,18.50
2016,06,12,14,03,18.60
2016,06,12,14,04,18.60
2016,06,12,14,05,18.70
2016,06,12,14,06,18.70
2016,06,12,14,07,18.70
2016,06,12,14,08,18.60
2016,06,12,14,09,18.40
2016,06,12,14,10,18.30
2016,06,12,14,11,18.30
2016,06,12,14,12,18.40
2016,06,12,14,13,18.40
2016,06,12,14,14,18.40
2016,06,12,14,15,18.40
2016,06,12,14,16,18.40
2016,06,12,14,17,18.40
2016,06,12,14,18,18.40
2016,06,12,14,19,18.40
2016,06,12,14,20,18.40
2016,06,12,14,21,18.40
2016,06,12,14,22,18.40
2016,06,12,14,23,18.40
2016,06,12,14,24,18.40
2016,06,12,14,25,18.50
2016,06,12,14,26,18.60
2016,06,12,14,27,18.60
2016,06,12,14,28,18.60
2016,06,12,14,29,18.50
2016,06,12,14,30,18.50
2016,06,12,14,31,18.60
2016,06,12,14,32,18.70
2016,06,12,14,33,18.90
2016,06,12,14,34,18.90
2016,06,12,14,35,19.00
2016,06,12,14,36,19.10
2016,06,12,14,37,19.10
2016,06,12,14,38,19.20
2016,06,12,14,39,19.20
2016,06,12,14,40,19.30
2016,06,12,14,41,19.30
2016,06,12,14,42,19.40
2016,06,12,14,43,19.40
2016,06,12,14,44,19.60
2016,06,12,14,45,19.70
2016,06,12,14,46,19.70
2016,06,12,14,47,19.80
2016,06,12,14,48,19.70
2016,06,12,14,49,19.60
2016,06,12,14,50,19.50
2016,06,12,14,51,19.40
2016,06,12,14,52,19.40
2016,06,12,14,53,19.40
2016,06,12,14,54,19.50
2016,06,12,14,55,19.50
2016,06,12,14,56,19.50
2016,06,12,14,57,19.40
2016,06,12,14,58,19.50
2016,06,12,14,59,19.50
2016,06,12,15,00,19.50
2016,06,12,15,01,19.50
2016,06,12,15,02,19.40
2016,06,12,15,03,19.40
2016,06,12,15,04,19.40
2016,06,12,15,05,19.50
2016,06,12,15,06,19.60
2016,06,12,15,07,19.80
2016,06,12,15,08,19.90
2016,06,12,15,09,20.00
2016,06,12,15,10,20.10
2016,06,12,15,11,20.10
2016,06,12,15,12,20.00
2016,06,12,15,13,20.00
2016,06,12,15,14,20.00
2016,06,12,15,15,19.90
2016,06,12,15,16,19.80
2016,06,12,15,17,19.70
2016,06,12,15,18,19.70
2016,06,12,15,19,19.70
2016,06,12,15,20,19.80
2016,06,12,15,21,19.90
2016,06,12,15,22,20.00
2016,06,12,15,23,20.10
2016,06,12,15,24,20.20
2016,06,12,15,25,20.10
2016,06,12,15,26,20.00
2016,06,12,15,27,19.90
2016,06,12,15,28,19.90
2016,06,12,15,29,20.00
2016,06,12,15,30,20.00
2016,06,12,15,31,20.00
2016,06,12,15,32,20.00
2016,06,12,15,33,20.10
2016,06,12,15,34,20.20
2016,06,12,15,35,20.20
2016,06,12,15,36,20.10
2016,06,12,15,37,20.00
2016,06,12,15,38,19.90
2016,06,12,15,39,19.80
2016,06,12,15,40,19.70
2016,06,12,15,41,19.70
2016,06,12,15,42,19.70
2016,06,12,15,43,19.70
2016,06,12,15,44,19.70
2016,06,12,15,45,19.70
2016,06,12,15,46,19.70
2016,06,12,15,47,19.70
2016,06,12,15,48,19.70
2016,06,12,15,49,19.70
2016,06,12,15,50,19.60
2016,06,12,15,51,19.60
2016,06,12,15,52,19.50
2016,06,12,15,53,19.50
2016,06,12,15,54,19.40
2016,06,12,15,55,19.20
2016,06,12,15,56,19.10
2016,06,12,15,57,19.00
2016,06,12,15,58,18.90
2016,06,12,15,59,18.90
2016,06,12,16,00,18.80
2016,06,12,16,01,18.90
2016,06,12,16,02,18.80
2016,06,12,16,03,18.80
2016,06,12,16,04,18.80
2016,06,12,16,05,18.80
2016,06,12,16,06,18.90
2016,06,12,16,07,18.90
2016,06,12,16,08,18.80
2016,06,12,16,09,18.80
2016,06,12,16,10,18.80
2016,06,12,16,11,18.80
2016,06,12,16,12,18.80
2016,06,12,16,13,18.80
2016,06,12,16,14,18.80
2016,06,12,16,15,18.90
2016,06,12,16,16,18.90
2016,06,12,16,17,19.00
2016,06,12,16,18,19.00
2016,06,12,16,19,19.10
2016,06,12,16,20,19.10
2016,06,12,16,21,19.20
2016,06,12,16,22,19.20
2016,06,12,16,23,19.20
2016,06,12,16,24,19.20
2016,06,12,16,25,19.20
2016,06,12,16,26,19.20
2016,06,12,16,27,19.20
2016,06,12,16,28,19.10
2016,06,12,16,29,19.00
2016,06,12,16,30,19.00
2016,06,12,16,31,18.90
2016,06,12,16,32,18.80
2016,06,12,16,33,18.80
2016,06,12,16,34,18.80
2016,06,12,16,35,18.80
2016,06,12,16,36,18.70
2016,06,12,16,37,18.70
2016,06,12,16,38,18.70
2016,06,12,16,39,18.70
2016,06,12,16,40,18.60
2016,06,12,16,41,18.60
2016,06,12,16,42,18.60
2016,06,12,16,43,18.60
2016,06,12,16,44,18.60
2016,06,12,16,45,18.60
2016,06,12,16,46,18.60
2016,06,12,16,47,18.60
2016,06,12,16,48,18.70
2016,06,12,16,49,18.70
2016,06,12,16,50,18.70
2016,06,12,16,51,18.70
2016,06,12,16,52,18.80
2016,06,12,16,53,18.80
2016,06,12,16,54,18.80
2016,06,12,16,55,18.80
2016,06,12,16,56,18.70
2016,06,12,16,57,18.70
2016,06,12,16,58,18.70
2016,06,12,16,59,18.70
2016,06,12,17,00,18.70
2016,06,12,17,01,18.80
2016,06,12,17,02,18.80
2016,06,12,17,03,18.90
2016,06,12,17,04,18.90
2016,06,12,17,05,18.90
2016,06,12,17,06,18.90
2016,06,12,17,07,18.90
2016,06,12,17,08,18.90
2016,06,12,17,09,18.90
2016,06,12,17,10,18.90
2016,06,12,17,11,18.90
2016,06,12,17,12,19.00
2016,06,12,17,13,19.00
2016,06,12,17,14,19.10
2016,06,12,17,15,19.10
2016,06,12,17,16,19.10
2016,06,12,17,17,19.00
2016,06,12,17,18,19.00
2016,06,12,17,19,18.90